Showing default

BD-17, 40549

Orbit data source: Space-Track

BD-17, 40549 is a payload satellite owned by CNSA (CN) in GEO that was launched on Mon, 30 Mar 2015 UTC via a CHANG ZHENG 3C/YZ-1 launch vehicle from the Xichang Space Center, China (XSC). Payloads include a variety of satellites, spacecraft, and rockets equipped with specific instruments for various scientific and technological missions. These include communications satellites like Starlink; space stations such as the ISS; scientific satellites like the Hubble; Earth observation satellites from companies like Planet Labs, Umbra, and HawkEye 360; GPS; miniature CubeSats for education and research; and military/defense satellites.

Not visible in the next 10 days
BD-17 details
Identifier
40549, 2015-019A
Orbit
GEO
Last TLE update3 days ago
Origin
Flag of CNCNSA (CN / PRC)
ManufacturerSECM
MissionAwaiting activation Defense Navigation
Bus & MotorBD-3I, AKM?
Mass~1,150 kg wet, ~850 kg dry
Launch date (UTC)
2015-03-30 (10 years ago)
Launch vehicle
CHANG ZHENG 3C/YZ-1
Launch site
Xichang Space Center, China (XSC)
Object type
Payload
Rocket body
Debris
Shape & HBRBox + 2 Pan, 18 m
Radar Cross Section13.998 m², Large (>1 m²)

Expand to show TLE details & history

TLE from 3 days ago
0 BD-17
1 40549U 15019A   24336.84526388 -.00000183  00000-0  00000-0 0  9993
2 40549  50.2637 302.2047 0034952 198.9368 330.8121  1.00267302 35436
Epoch: 2024-12-01T20:17Z
Definitive object data (Epoch: 2024-12-01T20:17:10.799Z)
Latitude7.96012°
Longitude100.01701°
Altitude35,659.174 km
Speed3.084 km/s
True Right ascension07h 41m 57s
True Declination7° 57' 08"
Sunlit
Object was in daylight at TLE epoch
Visualization TLE readout
Latitude14.96847°
Longitude-60.5156°
Altitude35,934.451 km
Speed3.064 km/s
Apparent Right ascension20h 53m 34s
Apparent Declination8° 32' 01"
Sunlit
Object is in daylight
Visualization observer readout
Local Sidereal Time08:00:54
Azimuth342.888° N
Elevation-40.041°
Doppler factor1
Orbital elements
Apogee altitude35,935.375 km
Perigee altitude35,640.617 km
Semi-major axis42,166.133 km
Eccentricity0.0034952
Inclination50.2637°
RAAN302.2047°
Arg. of periapsis198.9368°
True anomaly330.61603°
Mean anomaly330.8121°
Eccentric anomaly330.71414°
Mean motion0.25067 °/min
BSTARUnknown
Orbital period1436.17 mins
Loading historical data...
40549 neighbors
Authenticating...
Loading maneuver chart data...
Loading historical data...
Loading historical data...
Loading historical data...
Loading historical data...
Loading historical data...
Loading historical data...
Loading historical data...
Other satellites on launch #19 in the year 2015 (2015-03-30 UTC)

BD-17 Visibility forecast

Observer location: undefined°, undefined

BD-17 is not visible in the next 10 days
Span
Click to sort rows by Start time (UTC) header in descending order
Start Az.
Max El. time (UTC)
Max El. Az.
Max El.
End time (UTC)
End Az.
|